[[{"header":{"parameterUnit":"m.s-1","parameterCategory":1,"la1":30.2991,"la2":30.254,"lo1":-89.0895,"lo2":-89.0444,"dx":0.0017,"dy":0.0017,"nx":28,"ny":28,"refTime":"2022-11-18T15:00:00:Z","depth":0,"parameterNumber":2,"parameterNumberName":"U-component_of_WINDS"},"data":[0,0,0,0,0,0,0,0,0,0,0,0,0,0,0,0,0,0,0,0,0,0,0,0,0,0,0,0,0,0,0,0,0,0,0,0,0,0,0,0,0,0,0,0,0,0,0,0,0,0,0,0,0,0,0,0,0,0,-3.0779,-3.078,0,-3.0868,-3.0869,-3.087,-3.0757,-3.0752,-3.0748,-3.0744,-3.0838,-3.0844,-3.085,0,0,0,0,0,0,0,0,0,0,0,0,0,-3.0512,-3.0517,-3.0779,-3.078,-3.0781,-3.0868,-3.0869,-3.0871,-3.0757,-3.0752,-3.0747,-3.0743,-3.0836,-3.0843,-3.0851,0,0,0,0,0,0,0,0,0,0,0,0,0,-3.0617,-3.0519,-3.0779,-3.0735,-3.0732,-3.0868,-3.0869,-3.0871,-3.0758,-3.0752,-3.0746,-3.074,-3.0833,-3.0843,-3.0852,-3.1035,0,0,-3.0881,-3.0885,0,0,0,0,0,0,0,0,-3.0612,-3.0627,-3.0741,-3.0739,-3.0735,-3.0795,-3.0809,-3.0926,-3.076,-3.0749,-3.0744,-3.0737,-3.0829,-3.0838,-3.0869,-3.104,-3.1044,-3.0882,-3.0888,-3.0892,-3.0895,0,0,0,0,0,0,0,-3.0604,-3.0623,-3.0814,-3.0742,-3.0739,-3.0712,-3.072,-3.0831,-3.0823,-3.0749,-3.0741,-3.0753,-3.0826,-3.086,-3.087,-3.1045,-3.0882,-3.089,-3.0896,-3.09,-3.137,-3.1377,0,0,0,0,0,0,-3.0602,-3.0617,-3.0812,-3.0817,-3.0657,-3.0721,-3.073,-3.0782,-3.0821,-3.0821,-3.0758,-3.0747,-3.0847,-3.0859,-3.0873,-3.109,-3.0892,-3.0901,-3.0906,-3.1364,-3.1372,-3.1379,0,0,0,0,0,0,-3.0597,-3.062,-3.0808,-3.0715,-3.0737,-3.0733,-3.0792,-3.0787,-3.0821,-3.0828,-3.0826,-3.0794,-3.0842,-3.086,-3.0996,-3.1092,-3.0905,-3.0914,-3.1356,-3.1366,-3.1376,-3.1527,0,0,0,0,0,0,-3.0589,-3.0619,-3.0689,-3.0718,-3.0742,-3.093,-3.0798,-3.0793,-3.0837,-3.0824,-3.0861,-3.0861,-3.0839,-3.0982,-3.1005,-3.1102,-3.0921,-3.1347,-3.136,-3.1372,-3.1513,-3.1541,-3.1565,0,0,0,0,0,-3.058,-3.0729,-3.0693,-3.0717,-3.0829,-3.0935,-3.095,-3.092,-3.0845,-3.0916,-3.092,-3.086,-3.1077,-3.0997,-3.1022,-3.1123,-3.1341,-3.1357,-3.1371,-3.1502,-3.1536,-3.1564,0,0,0,0,0,0,-3.0713,-3.0732,-3.0692,-3.0854,-3.0894,-3.0916,-3.1004,-3.0957,-3.1019,-3.1004,-3.0965,-3.0974,-3.1119,-3.1134,-3.1044,-3.1302,-3.1197,-3.1218,-3.1288,-3.132,-3.1345,-3.1339,-3.0929,0,0,0,0,0,-3.076,-3.0844,-3.0856,-3.0998,-3.102,-3.1009,-3.1054,-3.1027,-3.1067,-3.1084,-3.1098,-3.1139,-3.1216,-3.1268,-3.134,-3.1514,-3.1521,-3.1596,-3.1621,-3.1642,-3.1662,-3.1755,-3.1788,-3.1429,-3.1429,-3.1429,0,0,-3.0861,-3.0881,-3.0937,-3.1025,-3.1053,-3.1141,-3.1024,-3.1122,-3.1188,-3.1099,-3.1228,-3.124,-3.1283,-3.1439,-3.1509,-3.1456,-3.1762,-3.1662,-3.1679,-3.1687,-3.1774,-3.1808,-3.1838,-3.144,-3.1438,-3.1436,0,0,-3.1088,-3.1112,-3.1233,-3.1262,-3.1305,-3.1296,-3.1325,-3.1354,-3.1359,-3.1487,-3.1422,-3.1499,-3.1633,-3.1667,-3.1701,-3.194,-3.1888,-3.1964,-3.2099,-3.219,-3.2219,-3.2244,-3.233,-3.2361,-3.1983,-3.1983,-3.1983,0,-3.1208,-3.1338,-3.1301,-3.1404,-3.1445,-3.1367,-3.1489,-3.1519,-3.1584,-3.1614,-3.1554,-3.172,-3.1743,-3.1906,-3.1964,-3.1995,-3.2027,-3.1961,-3.2217,-3.2242,-3.2265,-3.2346,-3.2379,-3.1992,-3.1991,-3.199,-3.1989,0,-3.1483,-3.1574,-3.1666,-3.173,-3.178,-3.1893,-3.1873,-3.1929,-3.1897,-3.1895,-3.2027,-3.2052,-3.2127,-3.2163,-3.2134,-3.2322,-3.2288,-3.2223,-3.2117,-3.2309,-3.2385,-3.2416,-3.2005,-3.2002,-3.1999,-3.1997,0,0,-3.1799,-3.1839,-3.1874,-3.1901,-3.1942,-3.2012,-3.212,-3.2192,-3.2241,-3.2288,-3.2378,-3.2492,-3.2432,-3.2472,-3.2445,-3.2525,-3.2713,-3.245,-3.245,-3.2499,-3.2922,-3.2971,-3.3008,-3.2677,-3.2683,-3.2687,-3.2918,0,-3.2028,-3.2215,-3.2184,-3.2365,-3.2449,-3.2375,-3.2469,-3.2504,-3.2504,-3.2575,-3.2575,-3.2657,-3.2571,-3.2595,-3.267,-3.2674,-3.2797,-3.2656,-3.2761,-3.2766,-3.2755,-3.3047,-3.31,-3.3318,-3.2948,-3.2953,-3.2956,0,-3.2321,-3.2377,-3.2567,-3.2593,-3.2627,-3.2712,-3.2776,-3.2844,-3.2882,-3.2876,-3.292,-3.2878,-3.2986,-3.2876,-3.3024,-3.2929,-3.297,-3.2978,-3.2985,-3.2996,-3.2874,-3.3067,-3.3386,-3.3419,-3.3003,-3.2999,-3.2995,0,-3.2534,-3.2657,-3.2786,-3.2812,-3.2845,-3.2907,-3.2924,-3.2956,-3.3001,-3.3056,-3.3085,-3.3153,-3.319,-3.3243,-3.322,-3.3143,-3.3373,-3.3262,-3.3372,-3.3373,-3.3426,-3.3424,-3.3758,-3.345,-3.345,-3.3449,-3.3448,0,-3.2794,-3.2913,-3.2882,-3.2962,-3.3093,-3.3055,-3.3186,-3.3194,-3.3223,-3.3303,-3.3242,-3.3319,-3.3283,-3.3357,-3.334,-3.3465,-3.3482,-3.3481,-3.3476,-3.3488,-3.3488,-3.3515,-3.35,-3.3457,-3.3456,-3.3454,-3.3452,0,-3.3055,-3.3039,-3.3175,-3.3195,-3.3203,-3.3299,-3.3316,-3.3391,-3.3385,-3.3487,-3.3509,-3.35,-3.3584,-3.3565,-3.3658,-3.3646,-3.3804,-3.3779,-3.3792,-3.3786,-3.3898,-3.3888,-3.4263,-3.4311,-3.3971,-3.3974,-3.3977,0,-3.3223,-3.3313,-3.3342,-3.3391,-3.3412,-3.3492,-3.3537,-3.3503,-3.3553,-3.3602,-3.3671,-3.3749,-3.381,-3.3947,-3.3949,-3.4019,-3.3996,-3.4122,-3.4006,-3.4016,-3.3999,-3.3995,-3.4004,-3.4146,-3.415,-3.4153,-3.4156,0,-3.3523,-3.351,-3.3578,-3.3643,-3.3698,-3.3748,-3.3792,-3.3836,-3.3805,-3.3864,-3.3948,-3.3995,-3.4088,-3.4167,-3.4231,-3.4248,-3.4198,-3.4192,-3.4221,-3.4236,-3.424,-3.424,-3.3856,-3.4184,-3.4181,-3.4179,-3.4178,-3.4176,-3.3744,-3.382,-3.3852,-3.3929,-3.3958,-3.4,-3.4071,-3.4073,-3.4143,-3.4216,-3.4191,-3.4288,-3.4322,-3.4403,-3.4427,-3.4502,-3.4455,-3.4498,-3.4509,-3.452,-3.4534,-3.4226,-3.4514,-3.4513,-3.4512,-3.4511,-3.4511,0,-3.4041,-3.4058,-3.4129,-3.4192,-3.4252,-3.4197,-3.4243,-3.4297,-3.4383,-3.4418,-3.4479,-3.4576,-3.4651,-3.4658,-3.4729,-3.4788,-3.4766,-3.4808,-3.4804,-3.4809,-3.4572,-3.454,-3.4824,-3.4824,-3.4824,-3.4824,-3.4823,-3.4823,-3.4204,-3.433,-3.4321,-3.446,-3.4475,-3.4569,-3.46,-3.4638,-3.4666,-3.4777,-3.4839,-3.4842,-3.4867,-3.4938,-3.5005,-3.5005,-3.5035,-3.5085,-3.5077,-3.4856,-3.4825,-3.4796,-3.4765,-3.5092,-3.5092,-3.5307,-3.5309,-3.5311]},{"header":{"parameterUnit":"m.s-1","parameterCategory":1,"la1":30.2991,"la2":30.254,"lo1":-89.0895,"lo2":-89.0444,"dx":0.0017,"dy":0.0017,"nx":28,"ny":28,"refTime":"2022-11-18T15:00:00:Z","depth":0,"parameterNumber":3,"parameterNumberName":"V-component_of_WINDS"},"data":[0,0,0,0,0,0,0,0,0,0,0,0,0,0,0,0,0,0,0,0,0,0,0,0,0,0,0,0,0,0,0,0,0,0,0,0,0,0,0,0,0,0,0,0,0,0,0,0,0,0,0,0,0,0,0,0,0,0,-5.5262,-5.5263,0,-5.5367,-5.5369,-5.537,-5.5293,-5.5289,-5.5286,-5.5283,-5.5386,-5.5392,-5.5398,0,0,0,0,0,0,0,0,0,0,0,0,0,-5.4987,-5.4993,-5.5262,-5.5263,-5.5264,-5.5367,-5.5369,-5.537,-5.5293,-5.5289,-5.5285,-5.5281,-5.5384,-5.5391,-5.5398,0,0,0,0,0,0,0,0,0,0,0,0,0,-5.5101,-5.4995,-5.5261,-5.5238,-5.5237,-5.5367,-5.5369,-5.537,-5.5294,-5.5289,-5.5284,-5.5279,-5.5382,-5.5391,-5.5399,-5.5556,0,0,-5.5426,-5.543,0,0,0,0,0,0,0,0,-5.5095,-5.5111,-5.524,-5.524,-5.5239,-5.5312,-5.531,-5.5432,-5.5295,-5.5272,-5.5283,-5.5277,-5.5365,-5.5375,-5.5406,-5.556,-5.5565,-5.5427,-5.5433,-5.5436,-5.5439,0,0,0,0,0,0,0,-5.5087,-5.5106,-5.5303,-5.5242,-5.5242,-5.5221,-5.5231,-5.5333,-5.5346,-5.5274,-5.5269,-5.5283,-5.5364,-5.5398,-5.5408,-5.5566,-5.5427,-5.5435,-5.544,-5.5444,-5.5852,-5.5857,0,0,0,0,0,0,-5.5082,-5.51,-5.53,-5.5306,-5.5153,-5.523,-5.5242,-5.5294,-5.5345,-5.5348,-5.5287,-5.5279,-5.5385,-5.5398,-5.5411,-5.5596,-5.5436,-5.5445,-5.545,-5.5846,-5.5853,-5.5859,0,0,0,0,0,0,-5.5076,-5.5101,-5.5296,-5.5202,-5.5225,-5.524,-5.5299,-5.5298,-5.5332,-5.5354,-5.5356,-5.5319,-5.5381,-5.5399,-5.552,-5.5599,-5.5449,-5.5457,-5.584,-5.5848,-5.5856,-5.5968,0,0,0,0,0,0,-5.5069,-5.5099,-5.516,-5.5204,-5.5231,-5.5405,-5.5304,-5.5304,-5.5348,-5.5338,-5.5385,-5.5388,-5.5379,-5.5507,-5.5529,-5.5608,-5.5464,-5.5833,-5.5844,-5.5853,-5.5958,-5.5979,-5.5998,0,0,0,0,0,-5.5059,-5.5187,-5.5164,-5.5188,-5.5307,-5.541,-5.5425,-5.5413,-5.5355,-5.5415,-5.5429,-5.5386,-5.5587,-5.552,-5.5544,-5.5627,-5.5828,-5.5841,-5.5853,-5.5949,-5.5975,-5.5998,0,0,0,0,0,0,-5.515,-5.5192,-5.5167,-5.5313,-5.5359,-5.5397,-5.5472,-5.5442,-5.5504,-5.5492,-5.5473,-5.5484,-5.5611,-5.5631,-5.5557,-5.578,-5.5698,-5.5715,-5.5762,-5.5788,-5.5808,-5.58,-5.5471,0,0,0,0,0,-5.5188,-5.5269,-5.53,-5.5426,-5.545,-5.5458,-5.5502,-5.5489,-5.5535,-5.5553,-5.5576,-5.5621,-5.5693,-5.5742,-5.581,-5.596,-5.5968,-5.6029,-5.6049,-5.6065,-5.6081,-5.616,-5.6186,-5.59,-5.59,-5.59,0,0,-5.5265,-5.5298,-5.535,-5.5445,-5.5479,-5.5561,-5.5474,-5.5566,-5.5626,-5.5566,-5.5683,-5.5701,-5.5749,-5.5886,-5.5947,-5.5906,-5.6162,-5.6081,-5.6094,-5.6101,-5.6175,-5.6202,-5.6226,-5.5908,-5.5907,-5.5905,0,0,-5.5448,-5.5482,-5.559,-5.5626,-5.5678,-5.5682,-5.5708,-5.5751,-5.5761,-5.5878,-5.5834,-5.5905,-5.6031,-5.6067,-5.6102,-5.6297,-5.626,-5.632,-5.6425,-5.6502,-5.6525,-5.6545,-5.6613,-5.6638,-5.6335,-5.6336,-5.6336,0,-5.5537,-5.5662,-5.5649,-5.5744,-5.5785,-5.5736,-5.5844,-5.5879,-5.595,-5.598,-5.5933,-5.609,-5.6119,-5.6262,-5.631,-5.634,-5.6367,-5.6314,-5.6523,-5.6543,-5.6561,-5.6626,-5.6652,-5.6342,-5.6342,-5.6341,-5.634,0,-5.5768,-5.5855,-5.5935,-5.6007,-5.6058,-5.6159,-5.6159,-5.6212,-5.6194,-5.6202,-5.632,-5.6354,-5.6427,-5.646,-5.6443,-5.66,-5.6573,-5.6526,-5.6443,-5.6596,-5.6656,-5.6681,-5.6352,-5.635,-5.6348,-5.6346,0,0,-5.6012,-5.6075,-5.6104,-5.6136,-5.619,-5.6256,-5.6353,-5.6426,-5.6471,-5.6522,-5.6602,-5.6709,-5.6665,-5.6705,-5.6691,-5.676,-5.691,-5.6703,-5.6704,-5.6739,-5.7083,-5.7118,-5.7147,-5.6886,-5.6891,-5.6894,-5.7079,0,-5.6197,-5.6369,-5.6359,-5.6519,-5.6598,-5.6552,-5.6636,-5.6677,-5.6687,-5.6754,-5.6764,-5.684,-5.6777,-5.68,-5.6866,-5.6878,-5.6979,-5.6865,-5.6958,-5.6962,-5.6947,-5.7179,-5.7217,-5.739,-5.7102,-5.7107,-5.7109,0,-5.6436,-5.6496,-5.6665,-5.6706,-5.6738,-5.6815,-5.688,-5.6945,-5.699,-5.6992,-5.7036,-5.7011,-5.7107,-5.7023,-5.7154,-5.7076,-5.7113,-5.7125,-5.7132,-5.7139,-5.7044,-5.7192,-5.7444,-5.747,-5.7147,-5.7144,-5.7141,0,-5.6595,-5.6718,-5.6835,-5.6863,-5.6914,-5.6969,-5.6992,-5.7032,-5.7076,-5.7133,-5.7161,-5.7227,-5.7264,-5.7315,-5.7308,-5.7247,-5.744,-5.7355,-5.7443,-5.7444,-5.7486,-5.7483,-5.7747,-5.7512,-5.7511,-5.7511,-5.751,0,-5.6803,-5.6907,-5.6907,-5.6978,-5.7093,-5.708,-5.7193,-5.721,-5.7246,-5.7319,-5.7282,-5.7351,-5.7338,-5.7405,-5.74,-5.7508,-5.7525,-5.7528,-5.7525,-5.7531,-5.7531,-5.7555,-5.7542,-5.7518,-5.7516,-5.7515,-5.7514,0,-5.7,-5.7004,-5.7128,-5.7166,-5.7178,-5.7261,-5.7292,-5.7359,-5.7366,-5.7458,-5.7478,-5.7488,-5.7566,-5.7564,-5.7652,-5.7648,-5.7781,-5.7765,-5.7767,-5.7763,-5.785,-5.7842,-5.8138,-5.8176,-5.7917,-5.792,-5.7922,0,-5.7132,-5.7211,-5.7258,-5.7304,-5.7332,-5.7407,-5.7452,-5.7441,-5.7489,-5.7546,-5.7605,-5.768,-5.7738,-5.7864,-5.7878,-5.7945,-5.7929,-5.8028,-5.7939,-5.7942,-5.7929,-5.7924,-5.7931,-5.8046,-5.8048,-5.8051,-5.8053,0,-5.7364,-5.7362,-5.7429,-5.7497,-5.7552,-5.7605,-5.7653,-5.7693,-5.7687,-5.7742,-5.7822,-5.7868,-5.7957,-5.8031,-5.8095,-5.8116,-5.8084,-5.8081,-5.8104,-5.8111,-5.8108,-5.8109,-5.7813,-5.8074,-5.8072,-5.807,-5.8069,-5.8068,-5.7532,-5.76,-5.7643,-5.7719,-5.7754,-5.78,-5.7864,-5.7879,-5.7945,-5.8019,-5.8007,-5.8096,-5.8137,-5.8219,-5.8247,-5.8314,-5.8279,-5.8314,-5.8322,-5.8331,-5.834,-5.8098,-5.8326,-5.8325,-5.8325,-5.8324,-5.8324,0,-5.7761,-5.7787,-5.7857,-5.7926,-5.7985,-5.795,-5.8001,-5.8052,-5.8131,-5.8172,-5.8231,-5.8322,-5.8393,-5.8412,-5.848,-5.853,-5.8517,-5.8548,-5.8544,-5.8549,-5.8368,-5.8341,-5.8558,-5.8558,-5.8558,-5.8558,-5.8558,-5.8558,-5.7888,-5.8,-5.8003,-5.8132,-5.8156,-5.8244,-5.8276,-5.8317,-5.835,-5.8453,-5.8513,-5.8525,-5.8558,-5.8627,-5.869,-5.8694,-5.872,-5.8758,-5.8755,-5.8586,-5.8562,-5.854,-5.8514,-5.8764,-5.8764,-5.893,-5.8932,-5.8933]}]]